This is the latest recevied weather packets stored in our database for station/object OK1UOJ. If no packets are shown the sender has not sent any weather packets the latest 10 day(s).
| Time | Temp. | Humidity | Pressure | Rain* | Wind** | Luminosity | Snow |
|---|---|---|---|---|---|---|---|
| 1777888476 | 20.56° C | 85% | 1016.4 hPa | - | - | - | - |
| 1777888471 | 20.56° C | 85% | 1016.4 hPa | - | - | - | - |
| 1777888193 | 20.56° C | 89% | 1016.4 hPa | - | - | - | - |
| 1777887920 | 20.56° C | - | - | - | - | - | - |
| 1777887920 | 20.56° C | 88% | 1016.5 hPa | - | - | - | - |
| 1777887920 | 20.56° C | 88% | - | - | - | - | - |
| 1777887915 | 20.56° C | 88% | 1016.5 hPa | - | - | - | - |
| 1777887642 | 20.56° C | 80% | 1016.5 hPa | - | - | - | - |
| 1777887641 | 20.56° C | 80% | 1016.5 hPa | - | - | - | - |
| 1777887637 | 20.56° C | 80% | 1016.5 hPa | - | - | - | - |
| 1777887363 | 20° C | 82% | 1016.4 hPa | - | - | - | - |
| 1777887358 | 20° C | 82% | 1016.4 hPa | - | - | - | - |
| 1777887080 | 19.44° C | 90% | 1016.4 hPa | - | - | - | - |
| 1777886524 | 19.44° C | 87% | 1016.5 hPa | - | - | - | - |
| 1777885972 | 19.44° C | 89% | 1016.6 hPa | - | - | - | - |
| 1777885967 | 19.44° C | 89% | 1016.6 hPa | - | - | - | - |
| 1777884854 | 19.44° C | 88% | 1016.8 hPa | - | - | - | - |
| 1777884298 | 18.89° C | 90% | 1016.7 hPa | - | - | - | - |
| 1777883742 | 18.89° C | 89% | 1016.7 hPa | - | - | - | - |
| 1777883191 | 17.78° C | 96% | 1016.5 hPa | - | - | - | - |
| 1777883186 | 17.78° C | 96% | 1016.5 hPa | - | - | - | - |
| 1777882074 | 17.78° C | 95% | 1016.3 hPa | - | - | - | - |
| 1777881796 | 17.78° C | 95% | 1016.2 hPa | - | - | - | - |
| 1777881517 | 17.78° C | 97% | 1015.9 hPa | - | - | - | - |
| 1777881244 | 17.78° C | 98% | 1016.1 hPa | - | - | - | - |
* Rain since midnight (hover to see other rain measurements)
** Current wind speed in m/s (hover to see current wind gust speed)